CCM73QN LFKJ-LFML

Flight info

Callsign CCM73QN
Flight time 0h 46m
Altitude 24000
Route TINOT
Aircraft A320/M-SDE3FGHIRWY/LB1

Departure

Time 2026-04-28 18:56
Airport Ajaccio Napoléon Bonaparte airport (LFKJ)

Arrival

Time 2026-04-28 19:42
Airport Marseille Provence Airport (LFML)
Time Latitude Longitude Altitude Speed Heading
2026-04-28 18:02 41.92015 8.79609 21 ft 0 kts 345°
2026-04-28 18:47 41.92027 8.79620 23 ft 1 kts 64°
2026-04-28 18:48 41.92024 8.79629 22 ft 4 kts 108°
2026-04-28 18:48 41.92014 8.79673 21 ft 4 kts 76°
2026-04-28 18:48 41.92028 8.79686 21 ft 0 kts 24°
2026-04-28 18:49 41.92042 8.79694 21 ft 6 kts 25°
2026-04-28 18:49 41.92078 8.79717 24 ft 5 kts 25°
2026-04-28 18:50 41.92108 8.79736 21 ft 4 kts 25°
2026-04-28 18:50 41.92133 8.79751 22 ft 5 kts 25°
2026-04-28 18:50 41.92162 8.79769 22 ft 7 kts 25°
2026-04-28 18:50 41.92216 8.79803 21 ft 8 kts 25°
2026-04-28 18:51 41.92263 8.79832 22 ft 7 kts 25°
2026-04-28 18:51 41.92312 8.79863 21 ft 12 kts 25°
2026-04-28 18:51 41.92423 8.79931 21 ft 20 kts 24°
2026-04-28 18:51 41.92553 8.80013 21 ft 21 kts 25°
2026-04-28 18:52 41.92691 8.80099 22 ft 23 kts 24°
2026-04-28 18:52 41.92821 8.80215 21 ft 20 kts 43°
2026-04-28 18:52 41.92922 8.80350 21 ft 20 kts 45°
2026-04-28 18:52 41.92963 8.80460 22 ft 11 kts 89°
2026-04-28 18:53 41.92945 8.80531 26 ft 5 kts 115°
2026-04-28 18:53 41.92944 8.80549 26 ft 4 kts 83°
2026-04-28 18:53 41.92983 8.80610 27 ft 10 kts 35°
2026-04-28 18:53 41.93098 8.80657 26 ft 13 kts 353°
2026-04-28 18:54 41.93154 8.80677 25 ft 3 kts 99°
2026-04-28 18:54 41.93139 8.80701 27 ft 7 kts 150°
2026-04-28 18:54 41.93118 8.80695 25 ft 0 kts 200°
2026-04-28 18:55 41.93089 8.80679 29 ft 24 kts 202°
2026-04-28 18:55 41.92692 8.80429 24 ft 97 kts 205°
2026-04-28 18:55 41.91905 8.79933 29 ft 150 kts 206°
2026-04-28 18:55 41.90958 8.79307 607 ft 149 kts 208°
2026-04-28 18:56 41.90020 8.78647 1155 ft 155 kts 213°
2026-04-28 18:56 41.89128 8.77828 1780 ft 156 kts 216°
2026-04-28 18:56 41.88189 8.76942 2123 ft 177 kts 216°
2026-04-28 18:56 41.87130 8.75941 2514 ft 195 kts 216°
2026-04-28 18:57 41.85953 8.74844 2833 ft 218 kts 212°
2026-04-28 18:57 41.84618 8.73604 3105 ft 248 kts 213°
2026-04-28 18:57 41.83158 8.72261 3035 ft 260 kts 213°
2026-04-28 18:57 41.81662 8.70885 2985 ft 260 kts 213°
2026-04-28 18:58 41.80172 8.69514 2935 ft 260 kts 213°
2026-04-28 18:58 41.78630 8.68110 3399 ft 268 kts 212°
2026-04-28 18:58 41.77095 8.66745 4548 ft 265 kts 212°
2026-04-28 18:58 41.75549 8.65388 5494 ft 266 kts 211°
2026-04-28 18:59 41.73998 8.64028 6444 ft 267 kts 212°
2026-04-28 18:59 41.72591 8.62435 7272 ft 272 kts 232°
2026-04-28 18:59 41.71849 8.60090 8051 ft 280 kts 260°
2026-04-28 18:59 41.72027 8.57479 8896 ft 287 kts 288°
2026-04-28 19:00 41.72938 8.55079 9759 ft 291 kts 297°
2026-04-28 19:00 41.73953 8.52731 10525 ft 295 kts 298°
2026-04-28 19:00 41.75012 8.50299 10826 ft 316 kts 298°
2026-04-28 19:00 41.76150 8.47654 11090 ft 337 kts 297°
2026-04-28 19:01 41.77338 8.44814 11284 ft 358 kts 297°
2026-04-28 19:01 41.78548 8.41885 11835 ft 365 kts 297°
2026-04-28 19:01 41.79798 8.38898 12580 ft 367 kts 297°
2026-04-28 19:01 41.81063 8.35895 13286 ft 370 kts 297°
2026-04-28 19:02 41.82323 8.32909 13955 ft 374 kts 297°
2026-04-28 19:02 41.83585 8.29849 14572 ft 376 kts 294°
2026-04-28 19:02 41.84612 8.26602 15174 ft 378 kts 290°
2026-04-28 19:02 41.85610 8.23316 15784 ft 381 kts 290°
2026-04-28 19:03 41.86616 8.20004 16384 ft 384 kts 290°
2026-04-28 19:03 41.87630 8.16667 16993 ft 387 kts 290°
2026-04-28 19:03 41.88640 8.13346 17570 ft 390 kts 290°
2026-04-28 19:03 41.89671 8.09956 18176 ft 393 kts 290°
2026-04-28 19:04 41.90709 8.06532 18712 ft 397 kts 290°
2026-04-28 19:04 41.91751 8.03094 19245 ft 399 kts 290°
2026-04-28 19:04 41.92799 7.99628 19788 ft 401 kts 290°
2026-04-28 19:04 41.93851 7.96150 20309 ft 403 kts 290°
2026-04-28 19:05 41.94914 7.92633 20820 ft 405 kts 290°
2026-04-28 19:05 41.95978 7.89109 21314 ft 408 kts 290°
2026-04-28 19:05 41.97043 7.85568 21792 ft 410 kts 290°
2026-04-28 19:05 41.98101 7.82042 22254 ft 412 kts 290°
2026-04-28 19:06 41.99180 7.78451 22709 ft 415 kts 290°
2026-04-28 19:06 41.99911 7.76016 23011 ft 416 kts 290°
2026-04-28 19:06 42.01346 7.71212 23579 ft 419 kts 290°
2026-04-28 19:06 42.02435 7.67558 23911 ft 422 kts 290°
2026-04-28 19:07 42.03530 7.63889 24015 ft 424 kts 290°
2026-04-28 19:07 42.04648 7.60155 24030 ft 434 kts 290°
2026-04-28 19:07 42.05778 7.56368 24029 ft 437 kts 290°
2026-04-28 19:07 42.06907 7.52570 24030 ft 438 kts 290°
2026-04-28 19:08 42.08041 7.48742 24027 ft 439 kts 289°
2026-04-28 19:08 42.09155 7.44981 24030 ft 439 kts 289°
2026-04-28 19:08 42.10285 7.41164 24030 ft 439 kts 289°
2026-04-28 19:08 42.11428 7.37293 24027 ft 439 kts 289°
2026-04-28 19:09 42.12538 7.33522 24027 ft 439 kts 289°
2026-04-28 19:09 42.13665 7.29689 24029 ft 439 kts 289°
2026-04-28 19:09 42.14790 7.25869 24028 ft 438 kts 289°
2026-04-28 19:09 42.15913 7.22052 24026 ft 438 kts 289°
2026-04-28 19:10 42.17039 7.18216 24023 ft 438 kts 289°
2026-04-28 19:10 42.18157 7.14395 24025 ft 438 kts 289°
2026-04-28 19:10 42.19262 7.10619 24032 ft 438 kts 289°
2026-04-28 19:10 42.20386 7.06782 24028 ft 437 kts 289°
2026-04-28 19:11 42.21499 7.02970 24027 ft 437 kts 289°
2026-04-28 19:11 42.22614 6.99146 24014 ft 437 kts 289°
2026-04-28 19:11 42.23726 6.95324 24012 ft 437 kts 289°
2026-04-28 19:11 42.24830 6.91512 24012 ft 437 kts 289°
2026-04-28 19:12 42.25935 6.87685 24014 ft 437 kts 289°
2026-04-28 19:12 42.27037 6.83867 24017 ft 437 kts 289°
2026-04-28 19:12 42.28141 6.80031 24015 ft 437 kts 289°
2026-04-28 19:12 42.29246 6.76191 24013 ft 437 kts 289°
2026-04-28 19:13 42.30332 6.72419 24013 ft 437 kts 289°
2026-04-28 19:13 42.31438 6.68580 24012 ft 437 kts 289°
2026-04-28 19:13 42.32542 6.64742 24010 ft 437 kts 289°
2026-04-28 19:13 42.33648 6.60901 24011 ft 437 kts 289°
2026-04-28 19:14 42.34748 6.57070 24010 ft 437 kts 289°
2026-04-28 19:14 42.35838 6.53261 24011 ft 437 kts 288°
2026-04-28 19:14 42.36935 6.49411 24011 ft 437 kts 288°
2026-04-28 19:14 42.38028 6.45566 24022 ft 437 kts 288°
2026-04-28 19:15 42.39119 6.41722 24019 ft 437 kts 288°
2026-04-28 19:15 42.40211 6.37878 24017 ft 437 kts 288°
2026-04-28 19:15 42.41290 6.34079 24015 ft 437 kts 288°
2026-04-28 19:15 42.42028 6.31479 24014 ft 437 kts 288°
2026-04-28 19:16 42.43465 6.26390 24013 ft 437 kts 288°
2026-04-28 19:16 42.44549 6.22540 24021 ft 437 kts 288°
2026-04-28 19:16 42.45639 6.18676 24020 ft 437 kts 288°
2026-04-28 19:16 42.46724 6.14829 24020 ft 437 kts 288°
2026-04-28 19:17 42.47797 6.11028 24017 ft 437 kts 288°
2026-04-28 19:17 42.48881 6.07180 24018 ft 437 kts 288°
2026-04-28 19:17 42.49964 6.03326 24016 ft 437 kts 288°
2026-04-28 19:17 42.51043 5.99472 24013 ft 437 kts 288°
2026-04-28 19:18 42.52119 5.95620 24013 ft 436 kts 288°
2026-04-28 19:18 42.53192 5.91761 24012 ft 436 kts 288°
2026-04-28 19:18 42.54265 5.87900 24011 ft 436 kts 288°
2026-04-28 19:18 42.55324 5.84089 24014 ft 436 kts 288°
2026-04-28 19:19 42.56394 5.80236 24014 ft 436 kts 288°
2026-04-28 19:19 42.57464 5.76374 23980 ft 438 kts 288°
2026-04-28 19:19 42.58534 5.72507 23744 ft 437 kts 288°
2026-04-28 19:19 42.59594 5.68666 23107 ft 432 kts 288°
2026-04-28 19:20 42.60644 5.64864 22410 ft 427 kts 288°
2026-04-28 19:20 42.61681 5.61110 21749 ft 422 kts 288°
2026-04-28 19:20 42.62705 5.57396 21117 ft 417 kts 288°
2026-04-28 19:20 42.63713 5.53722 20489 ft 413 kts 288°
2026-04-28 19:21 42.64713 5.50074 19872 ft 410 kts 288°
2026-04-28 19:21 42.65689 5.46499 19297 ft 407 kts 288°
2026-04-28 19:21 42.66674 5.42887 18721 ft 404 kts 288°
2026-04-28 19:21 42.67648 5.39312 18151 ft 401 kts 288°
2026-04-28 19:22 42.68727 5.35826 17588 ft 399 kts 295°
2026-04-28 19:22 42.69678 5.33704 17254 ft 398 kts 303°
2026-04-28 19:22 42.72145 5.30011 16698 ft 403 kts 317°
2026-04-28 19:22 42.74479 5.27768 16344 ft 417 kts 327°
2026-04-28 19:23 42.76994 5.25763 15962 ft 419 kts 327°
2026-04-28 19:23 42.79519 5.23749 15585 ft 423 kts 327°
2026-04-28 19:23 42.82083 5.21698 15198 ft 430 kts 328°
2026-04-28 19:23 42.84665 5.19631 14805 ft 429 kts 328°
2026-04-28 19:24 42.87216 5.17588 14422 ft 429 kts 328°
2026-04-28 19:24 42.89781 5.15534 14038 ft 426 kts 328°
2026-04-28 19:24 42.92366 5.13551 13630 ft 424 kts 333°
2026-04-28 19:24 42.95135 5.12186 13243 ft 423 kts 345°
2026-04-28 19:25 42.98046 5.11589 12868 ft 423 kts 356°
2026-04-28 19:25 43.00979 5.11384 12487 ft 422 kts 356°
2026-04-28 19:25 43.03909 5.11182 12112 ft 419 kts 356°
2026-04-28 19:25 43.06778 5.10982 11742 ft 417 kts 356°
2026-04-28 19:26 43.09675 5.10775 11369 ft 415 kts 356°
2026-04-28 19:26 43.12538 5.10566 11050 ft 405 kts 356°
2026-04-28 19:26 43.15288 5.10367 10920 ft 385 kts 356°
2026-04-28 19:26 43.17911 5.10176 10796 ft 368 kts 356°
2026-04-28 19:27 43.20389 5.10000 10676 ft 352 kts 356°
2026-04-28 19:27 43.22797 5.09830 10554 ft 337 kts 356°
2026-04-28 19:27 43.25073 5.09668 10433 ft 325 kts 356°
2026-04-28 19:27 43.27315 5.09506 10312 ft 312 kts 356°
2026-04-28 19:28 43.29423 5.09352 10159 ft 302 kts 356°
2026-04-28 19:28 43.31519 5.09197 9843 ft 300 kts 356°
2026-04-28 19:28 43.33598 5.09045 9575 ft 298 kts 357°
2026-04-28 19:28 43.35670 5.08897 9344 ft 296 kts 357°
2026-04-28 19:29 43.37729 5.08753 9116 ft 295 kts 358°
2026-04-28 19:29 43.39090 5.08802 8965 ft 294 kts
2026-04-28 19:29 43.41807 5.09380 8643 ft 295 kts
2026-04-28 19:29 43.43859 5.09827 8402 ft 301 kts
2026-04-28 19:30 43.45934 5.10276 8149 ft 302 kts 10°
2026-04-28 19:30 43.47982 5.10719 7908 ft 301 kts 10°
2026-04-28 19:30 43.50055 5.11169 7663 ft 299 kts
2026-04-28 19:30 43.52114 5.11617 7420 ft 299 kts 10°
2026-04-28 19:31 43.54144 5.12063 7165 ft 292 kts 10°
2026-04-28 19:31 43.56128 5.12497 6923 ft 286 kts 10°
2026-04-28 19:31 43.58098 5.12889 6703 ft 285 kts
2026-04-28 19:31 43.60051 5.12716 6464 ft 285 kts 348°
2026-04-28 19:32 43.61913 5.11803 6231 ft 284 kts 332°
2026-04-28 19:32 43.63603 5.10376 6075 ft 280 kts 328°
2026-04-28 19:32 43.65218 5.08978 5955 ft 266 kts 328°
2026-04-28 19:32 43.66752 5.07652 5843 ft 254 kts 328°
2026-04-28 19:33 43.68204 5.06343 5705 ft 246 kts 319°
2026-04-28 19:33 43.69096 5.04452 5570 ft 237 kts 279°
2026-04-28 19:33 43.68979 5.02285 5443 ft 221 kts 245°
2026-04-28 19:33 43.68182 5.00561 5332 ft 208 kts 228°
2026-04-28 19:34 43.67271 4.99052 5211 ft 200 kts 226°
2026-04-28 19:34 43.66384 4.97640 5066 ft 189 kts 225°
2026-04-28 19:34 43.65521 4.96346 4913 ft 178 kts 223°
2026-04-28 19:34 43.64648 4.95159 4788 ft 174 kts 213°
2026-04-28 19:35 43.63563 4.94571 4638 ft 166 kts 181°
2026-04-28 19:35 43.62810 4.94667 4549 ft 163 kts 161°
2026-04-28 19:35 43.61561 4.95883 4363 ft 177 kts 133°
2026-04-28 19:35 43.60715 4.97106 4245 ft 171 kts 133°
2026-04-28 19:36 43.60161 4.97907 4213 ft 178 kts 133°
2026-04-28 19:36 43.59005 4.99571 3983 ft 181 kts 133°
2026-04-28 19:36 43.58416 5.00416 3838 ft 180 kts 134°
2026-04-28 19:36 43.57556 5.01651 3615 ft 176 kts 134°
2026-04-28 19:37 43.56729 5.02838 3393 ft 171 kts 134°
2026-04-28 19:37 43.56174 5.03633 3246 ft 168 kts 134°
2026-04-28 19:37 43.55124 5.05137 2943 ft 159 kts 134°
2026-04-28 19:37 43.54381 5.06202 2748 ft 148 kts 134°
2026-04-28 19:38 43.53682 5.07202 2549 ft 144 kts 135°
2026-04-28 19:38 43.52966 5.08226 2362 ft 153 kts 134°
2026-04-28 19:38 43.52223 5.09289 2155 ft 154 kts 134°
2026-04-28 19:38 43.51481 5.10351 1949 ft 150 kts 134°
2026-04-28 19:39 43.50784 5.11349 1749 ft 140 kts 134°
2026-04-28 19:39 43.50115 5.12304 1572 ft 135 kts 134°
2026-04-28 19:39 43.49463 5.13235 1389 ft 134 kts 134°
2026-04-28 19:39 43.48816 5.14160 1211 ft 133 kts 135°
2026-04-28 19:40 43.48182 5.15065 1030 ft 133 kts 135°
2026-04-28 19:40 43.47538 5.15983 847 ft 134 kts 136°
2026-04-28 19:40 43.46889 5.16909 680 ft 134 kts 136°
2026-04-28 19:40 43.46251 5.17852 493 ft 135 kts 138°
2026-04-28 19:41 43.45580 5.18779 302 ft 139 kts 135°
2026-04-28 19:41 43.44911 5.19743 135 ft 139 kts 136°
2026-04-28 19:41 43.44257 5.20663 20 ft 120 kts 136°
2026-04-28 19:41 43.43814 5.21299 33 ft 68 kts 134°
2026-04-28 19:42 43.43586 5.21622 41 ft 36 kts 133°
2026-04-28 19:42 43.43419 5.21860 47 ft 33 kts 135°
2026-04-28 19:42 43.43339 5.22058 51 ft 21 kts 106°
2026-04-28 19:42 43.43346 5.22234 52 ft 17 kts 63°
2026-04-28 19:43 43.43437 5.22268 51 ft 15 kts 334°
2026-04-28 19:43 43.43521 5.22202 49 ft 14 kts 329°
2026-04-28 19:43 43.43604 5.22135 47 ft 14 kts 329°
2026-04-28 19:43 43.43684 5.22124 43 ft 10 kts 51°
2026-04-28 19:44 43.43727 5.22188 46 ft 8 kts 47°
2026-04-28 19:44 43.43737 5.22251 46 ft 6 kts 97°
2026-04-28 19:44 43.43730 5.22291 47 ft 3 kts 101°
2026-04-28 19:44 43.43741 5.22369 48 ft 11 kts 75°
2026-04-28 19:45 43.43760 5.22463 49 ft 9 kts 73°
2026-04-28 19:45 43.43817 5.22543 49 ft 18 kts 28°
2026-04-28 19:45 43.43884 5.22540 47 ft 5 kts 324°
2026-04-28 19:45 43.43883 5.22501 47 ft 4 kts 269°
2026-04-28 19:46 43.43882 5.22476 47 ft 1 kts 266°
2026-04-28 19:46 43.43882 5.22464 47 ft 1 kts 265°
2026-04-28 19:46 43.43882 5.22463 47 ft 2 kts 265°